Content
SEND FEEDBACK

Daily
Averages
Monthly
Summary
United States of America

RAPID CITY, SOUTH DAKOTA


Home > North America > United States > South Dakota
Elevation: 3162 feet     Latitude: 44 03N     Longitude: 103 04W

WEATHER
 
SELECT A DAY
Number of Records: 200,576;   Date Range: 1/1/95 - 9/21/14
 
SHARE

PRINT THIS DATA

[ ← Previous Day ]
WEATHER ALMANAC - JULY 1, 2013
[ Next Day → ]
[ °C ]   °F
Weather ElementAverageHighLow
Temperature70.8 °F81 °F (2:52 pm)59 °F (5:52 am)
Dewpoint52.2 °F55.9 °F (1:52 am)46 °F (8:52 pm)
Humidity54.7 %87 % (5:52 am)35 % (5:52 pm)
Barometer30.18 in30.22 in (7:52 am)30.13 in (6:52 pm)
Wind Speed7.8 mph13.8 mph (7:52 pm)
Wind Gust19.6 mph (2:52 pm)
Weather ElementAverage
Visibility10 mi
Wind DirectionESE (119.6 °)

Weather ElementTotal
Precipitation---
Cooling Degree Days5 (Base 65)
Growing Degree Days20 (Base 50)
Averaged from 23 records on July 1, 2013
WEATHER CONDITIONS BREAKOUT
WIND DIRECTION BREAKOUT
WEATHER BY HOUR - JULY 1, 2013
[ °C ]   °F
Local TimeTemperatureDewpointHumidityBarometerVisibilityWind DirectionWind SpeedGust SpeedPrecipitationEventsConditions
1:52 AM63.0 °F55.9 °F78 %30.19 in10.0 miSSE (150°)4.6 mphPartly Cloudy
2:52 AM62.1 °F55.0 °F78 %30.18 in10.0 miSSE (160°)3.5 mphScattered Clouds
3:52 AM61.0 °F55.0 °F81 %30.18 in10.0 miCalmOvercast
4:52 AM60.1 °F55.0 °F83 %30.19 in10.0 miSE (130°)3.5 mphScattered Clouds
5:52 AM59.0 °F55.0 °F87 %30.20 in10.0 miSE (130°)3.5 mphOvercast
6:52 AM63.0 °F55.0 °F75 %30.21 in10.0 miSE (130°)6.9 mphScattered Clouds
7:52 AM64.9 °F55.0 °F70 %30.22 in10.0 miSSE (150°)9.2 mphPartly Cloudy
8:52 AM70.0 °F55.9 °F61 %30.21 in10.0 miSE (140°)8.1 mphMostly Cloudy
9:52 AM75.0 °F55.9 °F51 %30.20 in10.0 miSSE (160°)9.2 mphMostly Cloudy
10:52 AM78.1 °F54.0 °F43 %30.19 in10.0 miSSE (160°)12.7 mphMostly Cloudy
11:52 AM80.1 °F53.1 °F39 %30.19 in10.0 miSSE (150°)10.4 mph17.3 mphClear
12:52 PM78.1 °F53.1 °F42 %30.18 in10.0 miSSE (150°)9.2 mph18.4 mphMostly Cloudy
1:52 PM78.1 °F53.1 °F42 %30.17 in10.0 miSE (140°)12.7 mphMostly Cloudy
2:52 PM81.0 °F53.1 °F38 %30.16 in10.0 miSSE (150°)10.4 mph19.6 mphPartly Cloudy
3:52 PM80.1 °F52.0 °F38 %30.15 in10.0 miSSE (150°)10.4 mphScattered Clouds
4:52 PM80.1 °F52.0 °F38 %30.15 in10.0 miSSE (150°)8.1 mphOvercast
5:52 PM80.1 °F50.0 °F35 %30.14 in10.0 miESE (120°)11.5 mphScattered Clouds
6:52 PM79.0 °F48.9 °F35 %30.13 in10.0 miESE (110°)12.7 mphMostly Cloudy
7:52 PM75.0 °F46.9 °F37 %30.14 in10.0 miESE (110°)13.8 mphMostly Cloudy
8:52 PM69.1 °F46.0 °F44 %30.15 in10.0 miEast (100°)10.4 mphClear
9:52 PM66.0 °F46.9 °F50 %30.17 in10.0 miESE (110°)9.2 mphPartly Cloudy
10:52 PM66.0 °F48.0 °F52 %30.17 in10.0 miCalmMostly Cloudy
11:52 PM60.1 °F46.9 °F62 %30.17 in10.0 miCalmClear
Hourly data recorded from KRAP, located miles away from Rapid City, South Dakota







STORIES FROM OUR PARTNERS